TimeEST,TemperatureF,Dew PointF,Humidity,Sea Level PressureIn,VisibilityMPH,Wind Direction,Wind SpeedMPH,Gust SpeedMPH,PrecipitationIn,Events,Conditions,WindDirDegrees,DateUTC
12:56 AM,41.0,39.9,96,29.96,0.8,ESE,3.5,-,0.00,,Light Drizzle,110,2012-12-10 05:56:00
1:56 AM,39.9,39.9,100,29.92,0.8,ESE,4.6,-,0.00,,Light Drizzle,120,2012-12-10 06:56:00
2:56 AM,41.0,39.9,96,29.90,0.5,ESE,3.5,-,0.00,Fog,Drizzle,120,2012-12-10 07:56:00
3:56 AM,41.0,39.9,96,29.86,0.5,ESE,4.6,-,0.00,Fog,Drizzle,120,2012-12-10 08:56:00
4:56 AM,41.0,41.0,100,29.83,0.5,Calm,Calm,-,0.00,Fog,Drizzle,0,2012-12-10 09:56:00
5:56 AM,41.0,41.0,100,29.81,0.5,Calm,Calm,-,0.01,Fog,Drizzle,0,2012-12-10 10:56:00
6:03 AM,41.0,41.0,100,29.80,0.8,Calm,Calm,-,0.00,Fog,Drizzle,0,2012-12-10 11:03:00
6:33 AM,41.0,39.2,93,29.79,0.8,Calm,Calm,-,0.00,,Mist,0,2012-12-10 11:33:00
6:56 AM,41.0,39.9,96,29.80,0.8,Calm,Calm,-,0.00,,Mist,0,2012-12-10 11:56:00
7:46 AM,41.0,41.0,100,29.77,0.5,Calm,Calm,-,N/A,Fog,Fog,0,2012-12-10 12:46:00
7:56 AM,41.0,41.0,100,29.78,0.2,Calm,Calm,-,N/A,Fog,Fog,0,2012-12-10 12:56:00
8:37 AM,42.8,41.0,93,29.77,0.8,Calm,Calm,-,N/A,,Overcast,0,2012-12-10 13:37:00
8:56 AM,42.1,42.1,100,29.78,0.8,North,3.5,-,N/A,,Overcast,350,2012-12-10 13:56:00
9:22 AM,42.8,41.0,93,29.77,0.5,WNW,3.5,-,0.01,Fog,Fog,300,2012-12-10 14:22:00
9:40 AM,42.8,42.8,100,29.75,0.8,Calm,Calm,-,0.01,,Light Drizzle,0,2012-12-10 14:40:00
9:47 AM,42.8,42.8,100,29.75,0.2,Calm,Calm,-,0.01,Fog,Light Drizzle,0,2012-12-10 14:47:00
9:56 AM,43.0,42.1,97,29.76,0.2,SSW,3.5,-,0.01,Fog,Light Drizzle,200,2012-12-10 14:56:00
10:56 AM,44.1,43.0,96,29.73,0.2,Calm,Calm,-,0.00,Fog,Fog,0,2012-12-10 15:56:00
11:26 AM,42.8,42.8,100,29.71,0.2,Calm,Calm,-,0.00,Fog-Rain,Light Rain,0,2012-12-10 16:26:00
11:44 AM,44.6,44.6,100,29.70,1.0,Calm,Calm,-,N/A,Rain,Light Rain,0,2012-12-10 16:44:00
11:56 AM,45.0,45.0,100,29.71,2.0,Calm,Calm,-,0.03,Rain,Light Rain,0,2012-12-10 16:56:00
12:13 PM,44.6,44.6,100,29.68,0.8,Calm,Calm,-,0.00,,Overcast,0,2012-12-10 17:13:00
12:20 PM,44.6,44.6,100,29.68,0.2,Calm,Calm,-,0.00,Fog,Fog,0,2012-12-10 17:20:00
12:56 PM,46.0,45.0,96,29.65,0.5,Calm,Calm,-,0.00,Fog,Fog,0,2012-12-10 17:56:00
12:59 PM,46.4,44.6,93,29.65,1.0,Calm,Calm,-,N/A,,Overcast,0,2012-12-10 17:59:00
1:10 PM,46.4,46.4,100,29.64,2.5,Calm,Calm,-,N/A,,Overcast,0,2012-12-10 18:10:00
1:20 PM,46.4,46.4,100,29.64,3.0,Calm,Calm,-,N/A,,Overcast,0,2012-12-10 18:20:00
1:31 PM,46.4,46.4,100,29.64,1.0,Calm,Calm,-,N/A,,Overcast,0,2012-12-10 18:31:00
1:56 PM,46.9,46.0,97,29.62,1.0,Calm,Calm,-,N/A,,Overcast,0,2012-12-10 18:56:00
2:05 PM,44.6,44.6,100,29.61,0.5,SE,5.8,-,0.00,Fog-Rain,Light Rain,140,2012-12-10 19:05:00
2:56 PM,46.0,46.0,100,29.61,0.2,Calm,Calm,-,0.01,Fog,Fog,0,2012-12-10 19:56:00
3:25 PM,48.2,46.4,93,29.61,0.8,Calm,Calm,-,N/A,,Overcast,0,2012-12-10 20:25:00
3:56 PM,48.0,46.9,96,29.59,1.0,Calm,Calm,-,0.00,,Overcast,0,2012-12-10 20:56:00
4:56 PM,46.9,46.9,100,29.59,1.0,Calm,Calm,-,0.01,,Overcast,0,2012-12-10 21:56:00
5:56 PM,46.9,46.0,97,29.59,1.0,NW,4.6,-,N/A,,Overcast,310,2012-12-10 22:56:00
6:16 PM,46.4,46.4,100,29.59,0.5,NW,5.8,-,0.00,Fog-Rain,Light Rain,320,2012-12-10 23:16:00
6:56 PM,48.0,48.0,100,29.58,1.0,Calm,Calm,-,0.00,Rain,Light Rain,0,2012-12-10 23:56:00
7:07 PM,46.4,44.6,93,29.57,0.5,Calm,Calm,-,0.01,Fog,Fog,0,2012-12-11 00:07:00
7:56 PM,48.0,46.9,96,29.57,0.8,Calm,Calm,-,0.01,,Overcast,0,2012-12-11 00:56:00
8:56 PM,46.9,46.9,100,29.59,0.8,WNW,8.1,-,N/A,,Overcast,300,2012-12-11 01:56:00
9:33 PM,46.4,46.4,100,29.59,0.5,NW,8.1,-,N/A,Fog,Fog,310,2012-12-11 02:33:00
9:56 PM,48.0,48.0,100,29.60,0.5,NW,9.2,-,N/A,Fog,Fog,310,2012-12-11 02:56:00
10:19 PM,48.2,48.2,100,29.60,0.8,NW,10.4,-,0.00,Fog-Rain,Light Rain,310,2012-12-11 03:19:00
10:29 PM,48.2,48.2,100,29.60,3.0,NW,9.2,-,0.00,Fog-Rain,Light Rain,320,2012-12-11 03:29:00
10:44 PM,46.4,46.4,100,29.62,5.0,NW,18.4,28.8,0.01,Fog-Rain,Light Rain,310,2012-12-11 03:44:00
10:56 PM,46.0,44.1,93,29.64,10.0,WNW,18.4,-,0.01,,Overcast,300,2012-12-11 03:56:00
11:19 PM,46.4,42.8,87,29.64,10.0,NW,16.1,-,N/A,,Overcast,320,2012-12-11 04:19:00
11:38 PM,48.2,42.8,82,29.66,10.0,NW,15.0,21.9,N/A,,Overcast,320,2012-12-11 04:38:00
11:56 PM,46.9,42.1,83,29.68,10.0,NW,15.0,23.0,N/A,,Overcast,320,2012-12-11 04:56:00